Regional Weather Roundup
Issued by NWS

Home | Current Version | Previous Version | Graphics & Text | Print | Product List | Glossary On
Versions: 1 2 3 4 5 6 7 8 9 10 11 12 13 14 15 16 17 18 19 20 21 22 23 24 25 26 27 28 29 30 31 32 33 34 35 36 37 38 39 40 41 42 43 44 45 46 47 48 49 50
000
ASUS43 KDTX 230510
RWRMI
MICHIGAN HOURLY REGIONAL WEATHER ROUNDUP
NATIONAL WEATHER SERVICE DETROIT/PONTIAC MI
100 AM EDT SAT JUL 23 2016

NOTE: "FAIR" INDICATES FEW OR NO CLOUDS BELOW 12,000 FEET WITH NO
SIGNIFICANT WEATHER AND/OR OBSTRUCTION TO VISIBILITY.

MIZ047>049-052>055-059>063-066>070-074>076-081>083-230600-
SOUTHEAST LOWER MICHIGAN

CITY           SKY/WX    TMP DP  RH WIND       PRES   REMARKS
ADRIAN         CLEAR     73  70  90 CALM      29.99S
ALMA           CLEAR     71  70  95 W9        29.98S
ANN ARBOR      CLEAR     70  70 100 SW3       29.98R
BAD AXE        CLEAR     61  59  93 CALM      29.95S
CARO             N/A     67  66  96 CALM      29.95S FOG
DETROIT CITY   CLEAR     82  70  66 W6        29.95S
DETROIT        CLEAR     79  70  74 W7        29.97S
FLINT          CLEAR     77  69  76 W7        29.96F
GROSSE ILE     CLEAR     78  71  77 CALM      29.96R
HOWELL         CLEAR     73  69  87 W5        29.98S

CITY           SKY/WX    TMP DP  RH WIND       PRES   REMARKS
JACKSON        CLEAR     72  71  97 CALM      30.00R
LAMBERTVILLE   CLEAR     74  71  88 CALM      29.98S
LANSING        CLEAR     74  68  81 W3        29.99S
LAPEER         FAIR      71  66  85 CALM      29.97S
MASON          CLEAR     71  68  91 W3        29.99S
MONROE         CLEAR     74  72  91 W3        29.96S
MT. CLEMENS    CLEAR     79  69  70 W6        29.93S
PONTIAC        CLEAR     77  69  76 W7        29.96S
PORT HOPE        N/A     67  65  93 W5        29.93R
PORT HURON     CLEAR     75  68  78 CALM      29.94S
TRI CITIES     CLEAR     73  71  93 W7        29.97R
MIDLAND        FAIR      66  65  96 CALM      29.96S
TROY           CLEAR     82  67  61 W6        29.98S
SAGINAW HB     CLEAR     73  68  83 W5        29.96S
$$
MIZ043>046-050>051-056>058-064>065-071>073-077>080-230600-
SOUTHWEST LOWER MICHIGAN

CITY           SKY/WX    TMP DP  RH WIND       PRES   REMARKS
BATTLE CREEK   CLEAR     67  67 100 SW3       30.01S
BENTON HARBOR  CLEAR     70  67  90 CALM      30.00R
BIG RAPIDS     CLEAR     66  66  99 CALM      29.99R
COLDWATER      CLEAR     70  70  99 CALM      30.01S
FREMONT        FAIR      66  66 100 S3        30.00R
HOLLAND        FOG       66  65  96 CALM      30.00S VSB 1/2
GRAND RAPIDS   CLEAR     71  67  87 W6        30.00R
IONIA          FAIR      71  67  87 W5        29.99R
KALAMAZOO      CLEAR     70  67  90 S3        30.00S
LUDINGTON      CLEAR     72  68  87 SW5       29.96S
MARSHALL       CLEAR     70  70  99 CALM      30.00R
MOUNT PLEASANT CLEAR     72  65  80 CALM      29.97S
MUSKEGON         N/A     68  66  93 SW3       29.99S FOG
SOUTH HAVEN    CLEAR     66  66  98 CALM      29.99S
$$
MIZ016>042-230600-
NORTHERN LOWER MICHIGAN

CITY           SKY/WX    TMP DP  RH WIND       PRES   REMARKS
ALPENA         CLEAR     67  60  78 CALM      29.94S
BEAVER ISLAND  CLEAR     63  62  95 CALM      29.94S
BELLAIRE       CLEAR     65  64  94 CALM      29.95S
CADILLAC       CLEAR     65  61  87 CALM      29.99S
CHARLEVOIX     CLEAR     70  65  84 SW8       29.97R
FRANKFORT      CLEAR     72  68  87 W5        29.96S
GAYLORD        CLEAR     68  61  78 CALM      29.98S
GRAYLING       CLEAR     62  60  93 CALM      29.99R
HARBOR SPRINGS CLEAR     67  64  91 CALM      29.94S
HOUGHTON LAKE  CLEAR     63  59  87 CALM      29.99S
MANISTEE       CLEAR     67  66  97 CALM      29.96R
OSCODA         CLEAR     69  57  65 W5        29.94R
PELLSTON       CLEAR     64  60  87 CALM      29.94R
ROGERS CITY    CLEAR     69  60  72 CALM      29.94R
TRAVERSE CITY  CLEAR     73  63  70 CALM      29.93R
$$
MIZ007>008-015-230600-
EASTERN UPPER MICHIGAN

CITY           SKY/WX    TMP DP  RH WIND       PRES   REMARKS
KINROSS        CLEAR     64  60  87 CALM      29.93R
MACKINAC ISLAN CLEAR     69  64  82 SW8       29.93R
NEWBERRY       CLEAR     65  61  86 W6        29.93R
S. S. MARIE    CLEAR     66  58  75 W6        29.91R
MUNISING         N/A     65  62  90 S8        29.93R
$$
MIZ004>006-011>014-085-230600-
CENTRAL UPPER MICHIGAN

CITY           SKY/WX    TMP DP  RH WIND       PRES   REMARKS
MANISTIQUE     CLEAR     61  60  97 CALM      29.94R
ESCANABA       CLEAR     63  57  82 NW5       29.93R
MENOMINEE      CLEAR     71  69  93 NW3       29.97R
SAWYER-GWINN   CLEAR     65  56  73 CALM      29.98R
$$
MIZ001>003-009>011-084-230600-
WESTERN UPPER MICHIGAN

CITY           SKY/WX    TMP DP  RH WIND       PRES   REMARKS
IRON MOUNTAIN  CLEAR     63  57  81 CALM      29.98R
HOUGHTON       CLEAR     65  54  67 NW9       29.95S
COPPER HARBOR    N/A     72  57  59 W6        29.91R
IRONWOOD       CLEAR     63  63 100 CALM      29.99S
$$

ABBREVIATIONS USED IN REMARKS
   TC - TEMPERATURE IN CELSIUS
  WCI - WIND CHILL INDEX
   HX - HEAT INDEX
  VSB - VISIBILITY





USA.gov is the U.S. government's official web portal to all federal, state and local government web resources and services.